Regional Weather Roundup
Issued by NWS Goodland, KS

Home | Current Version | Previous Version | Graphics & Text | Print | Product List | Glossary On
Versions: 1 2 3 4 5 6 7 8 9 10 11 12 13 14 15 16 17 18 19 20 21 22 23 24 25 26 27 28 29 30 31 32 33 34 35 36 37 38 39 40 41 42 43 44 45 46 47 48 49 50
000
ASUS43 KGLD 161408
RWRGLD

GOODLAND FORECAST AREA HOURLY WEATHER ROUNDUP
NATIONAL WEATHER SERVICE GOODLAND KS
700 AM MST MON JAN 16 2017

...OFFICIAL OBSERVATIONS...

CITY           SKY/WX    TMP DP  RH WIND       PRES   REMARKS
GOODLAND KS    FRZ RAIN  32  31  96 N17       29.87R
HILL CITY KS   FRZ RAIN  33  32  96 N8        29.89R FOG
IMPERIAL NEB   FRZ RAIN  33  30  88 N18       29.91S
MCCOOK NEB     MIX PCPN  32  32 100 N13       29.91S FOG
AKRON CO       LGT SNOW  27  25  92 N16       29.94R FOG     WCI  15
BURLINGTON CO  LGT SNOW  30  28  92 N16       29.89R FOG     WCI  19
LIMON CO       LGT SNOW  27  26  96 NW22G29   29.92R FOG     WCI  13
$$

...UNOFFICIAL OBSERVATIONS...

CITY           SKY/WX    TMP DP  RH WIND       PRES   REMARKS
LENORA KS        N/A     32  32 100 CALM        N/A
NORTON KS      MIX PCPN  34  28  80 N5        29.88R
SHARON SPRINGS   N/A     32  32 100 CALM        N/A
TRENTON NEB      N/A     32  32 100 CALM        N/A
KIT CARSON CO    N/A     29  26  89 CALM        N/A
YUMA CO        LGT SNOW  30  28  93 NW14      29.92S WCI  20
$$



USA.gov is the U.S. government's official web portal to all federal, state and local government web resources and services.